map of ETNW home
Great Circle Mapper logo
ETNW - Airport
Location
City:  Wunstorf, Lower Saxony, Germany
ICAO:ETNW

Details
Type:Airport (Flugplatz, Airfield)
Use:Military
Latitude:5227'26"N (52.457333)
Longitude:925'38"E (9.427150)
Elevation:187 ft (57 m)
Variation:2.0E (WMM2010 magnetic declination)
Runways:3
Longest:6157 × 153 ft (1877 × 46.5 m), paved

Time
Time Zone:UTC+1 (DST+2)
Local Time:

Weather
METAR:ETNW 271620Z AUTO 11012KT 8000 // ////// 03/00 Q1011 ///
TAF:ETNW 262300Z 2700/2712 11012KT 9999 NSW FEW012 BKN100
TEMPO 2703/2712 11015KT 7000 NSW BKN012 BKN080 BY ETGL

Related Locations
Nearby:
Farthest:CHT: 11775 mi / 18951 km
Waitangi [Tuuta], Chatham Islands, NZ

Find:

   beyond  
but within

Other Information
Maps:
NOTAMs:
Links:
Sources:

  
flag of Germany
flag of Lower Saxony
  

Sectional Chart

Flight Planning
at skyvector.com

Satellite Image

Google Maps Satellite View

 

Copyright © 2004-2014 Karl L. Swartz. All rights reserved.
The Great Circle Mapper name and logo are trademarks of the Great Circle Mapper.
All other trademarks mentioned herein belong to their respective owners.
Please see credits for attibutions and further copyright information.

  Follow gcmap on Facebook Follow gcmap on Twitter

hCard Microformat

Geo Microformat